Location: �quirre
(50.4736°N, 2.2351°E)
Time: 00:07:43
(UTC+00:00)

Landsat 4 - Pass Details

Date: 07 August 2020
Orbit: 504 x 524 km, 98.2° (Epoch: 23 September)

Event Time Altitude Azimuth Distance (km) Brightness Sun altitude
Rises 00:14:17 0° 15° (NNE) 2,668 8.7 -23.1°
Reaches altitude 10° 00:16:24 10° 17° (NNE) 1,772 7.5 -23.0°
Enters shadow 00:19:58 73° 56° (ENE) 551 3.8 -23.0°
